Home   Weather   Bentonville   Past weeks

Flag for USA Past Weather in Bentonville, Arkansas, USA — Yesterday and Last 2 Weeks

Now
63 °F

Mostly cloudy.


Feels Like: 63 °F
Forecast: 62 / 74 °F
Wind: 9 mph from Southeast

Location: Bentonville Weather Observing Station

Current Time: Apr 29, 2017 at 4:59:39 am

Latest Report: Apr 29, 2017 at 4:15 am


Visibility: 10 mi

Pressure: 29.69 "Hg

Humidity: 94%

Dew Point: 61 °F

Location of BentonvilleLocation

Past Weather in Bentonville — Graph

°F

Bentonville Temperature Yesterday

Maximum temperature yesterday: 68 °F (at 4:15 pm)
Minimum temperature yesterday: 55 °F (at 3:35 am)
Average temperature yesterday: 62 °F

High & Low Weather Summary for the Past Weeks

 TemperatureHumidityPressure
High81 °F (Apr 15, 3:15 pm)94% (Apr 17, 12:55 am)30.16 "Hg (Apr 17, 12:55 am)
Low37 °F (Apr 27, 5:35 am)22% (Apr 24, 3:35 pm)29.45 "Hg (Apr 26, 9:35 am)
Average61 °F73%29.90 "Hg
* Reported Apr 14 3:15 am — Apr 29 3:55 am, Bentonville, Weather by CustomWeather, © 2017

Note: Actual official high and low records may vary slightly from our data, if they occured in-between our weather recording intervals... More about our weather records

Advertising

Bentonville Weather History for the Previous 24 Hours

Scroll right to see more
 ConditionsComfort  
Time TempWeatherWind HumidityBarometerVisibility
3:55 am
Sat, Apr 29
63 °FThundershowers. Partly cloudy.10 mph94%29.67 "Hg10 mi
3:35 am63 °FThundershowers. Clear.12 mph94%29.68 "Hg10 mi
3:15 am63 °FThunderstorms. Partly cloudy.12 mph94%29.68 "Hg10 mi
2:35 am63 °FThunderstorms. Partly cloudy.9 mph94%29.72 "Hg10 mi
2:15 am63 °FThunderstorms. Overcast.14 mph94%29.67 "Hg3 mi
1:55 am63 °FThunderstorms. Partly cloudy.12 mph94%29.75 "Hg10 mi
1:35 am64 °FThunderstorms. Overcast.20 mph88%29.68 "Hg10 mi
1:15 am63 °FThunderstorms. Partly cloudy.3 mph94%29.70 "Hg10 mi
12:55 am63 °FThunderstorms. Mostly cloudy.13 mph94%29.73 "Hg9 mi
12:35 am64 °FThunderstorms. Overcast.8 mph88%29.69 "Hg9 mi
12:15 am64 °FThundershowers. Partly cloudy.10 mph88%29.72 "Hg7 mi
11:55 pm
Fri, Apr 28
64 °FThunderstorms. Partly cloudy.7 mph94%29.72 "Hg7 mi
11:35 pm64 °FThunderstorms. Mostly cloudy.3 mph88%29.77 "Hg2 mi
11:15 pm64 °FThunderstorms. Partly cloudy.9 mph94%29.72 "Hg5 mi
10:55 pm64 °FThunderstorms. Passing clouds.7 mph94%29.74 "Hg4 mi
10:35 pm64 °FThundershowers. Passing clouds.3 mph94%29.75 "Hg3 mi
10:15 pm64 °FPassing clouds.5 mph94%29.77 "Hg4 mi
9:55 pm64 °FPassing clouds.5 mph94%29.77 "Hg5 mi
9:35 pm64 °FThunderstorms. Mostly cloudy.3 mph94%29.78 "Hg3 mi
8:55 pm64 °FClear.5 mph88%29.77 "Hg6 mi
8:35 pm66 °FClear.3 mph83%29.77 "Hg7 mi
8:15 pm66 °FClear.No wind83%29.76 "Hg7 mi
7:55 pm66 °FScattered clouds.No wind83%29.76 "Hg6 mi
7:35 pm66 °FPartly sunny.5 mph83%29.74 "Hg6 mi
7:15 pm66 °FPassing clouds.No wind83%29.74 "Hg7 mi
6:55 pm66 °FScattered clouds.3 mph83%29.74 "Hg7 mi
6:35 pm66 °FScattered clouds.No wind83%29.74 "Hg8 mi
6:15 pm66 °FOvercast.No wind83%29.73 "Hg7 mi
5:55 pm66 °FPartly sunny.No wind83%29.73 "Hg8 mi
5:35 pm68 °FPartly sunny.3 mph78%29.72 "Hg8 mi
5:15 pm66 °FMostly cloudy.No wind83%29.72 "Hg8 mi
4:55 pm68 °FMostly cloudy.3 mph78%29.71 "Hg9 mi
4:35 pm68 °FBroken clouds.7 mph78%29.71 "Hg8 mi
4:15 pm68 °FMostly cloudy.5 mph78%29.71 "Hg8 mi
3:55 pm66 °FOvercast.3 mph83%29.71 "Hg8 mi
3:35 pm66 °FOvercast.3 mph83%29.71 "Hg8 mi
2:55 pm66 °FOvercast.6 mph83%29.72 "Hg8 mi
2:35 pm66 °FOvercast.3 mph83%29.70 "Hg9 mi
2:15 pm66 °FOvercast.No wind83%29.69 "Hg9 mi
1:55 pm66 °FOvercast.6 mph78%29.70 "Hg9 mi
1:35 pm66 °FOvercast.3 mph78%29.70 "Hg9 mi
12:55 pm66 °FOvercast.9 mph78%29.70 "Hg10 mi
12:35 pm64 °FOvercast.6 mph78%29.70 "Hg10 mi
12:15 pm64 °FOvercast.8 mph78%29.70 "Hg10 mi
11:55 am63 °FOvercast.10 mph83%29.70 "Hg9 mi
11:35 am63 °FOvercast.8 mph83%29.70 "Hg8 mi
11:15 am63 °FOvercast.7 mph83%29.69 "Hg6 mi
10:55 am63 °FOvercast.No wind83%29.69 "Hg7 mi
10:35 am61 °FOvercast.No wind83%29.68 "Hg10 mi
10:15 am61 °FMostly cloudy.3 mph83%29.67 "Hg10 mi
9:55 am61 °FMostly cloudy.8 mph83%29.67 "Hg10 mi
9:35 am61 °FCloudy.7 mph77%29.67 "Hg10 mi
9:15 am61 °FCloudy.9 mph77%29.67 "Hg10 mi
8:55 am59 °FOvercast.7 mph82%29.68 "Hg10 mi
8:15 am57 °FPartly sunny.13 mph88%29.67 "Hg10 mi
7:55 am57 °FBroken clouds.13 mph88%29.67 "Hg10 mi
7:35 am57 °FThundershowers. Mostly cloudy.9 mph82%29.67 "Hg9 mi
7:15 am57 °FThunderstorms. Partly sunny.8 mph82%29.68 "Hg10 mi
6:55 am55 °FOvercast.12 mph88%29.65 "Hg10 mi
6:35 am55 °FOvercast.10 mph88%29.67 "Hg10 mi
6:15 am55 °FThunderstorms. Passing clouds.7 mph88%29.69 "Hg10 mi
5:55 am55 °FThundershowers. Passing clouds.8 mph88%29.68 "Hg10 mi
5:35 am55 °FPassing clouds.9 mph88%29.69 "Hg10 mi
5:15 am55 °FPassing clouds.12 mph88%29.69 "Hg10 mi
4:55 am55 °FPassing clouds.12 mph88%29.71 "Hg10 mi
4:35 am55 °FPassing clouds.10 mph88%29.71 "Hg10 mi
4:15 am55 °FPassing clouds.13 mph82%29.73 "Hg10 mi
Weather by CustomWeather, © 2017

See weather overviewHow to use our weather pages